Weather History for Vitoria, Spain

Change the Weather History Date:

Saturday, October 5, 2013

  Actual Average Record
Temperature  
Mean Temperature 56 °F -  
Max Temperature 66 °F 63 °F 86 °F (2004)
Min Temperature 46 °F 44 °F 32 °F (2008)
Degree Days  
Heating Degree Days 9    
Growing Degree Days 6 (Base 50)    
Moisture  
Dew Point 52 °F    
Average Humidity 90    
Maximum Humidity 100    
Minimum Humidity 60    
Precipitation  
Precipitation 0.00 in - - ()
Sea Level Pressure  
Sea Level Pressure 30.26 in    
Wind  
Wind Speed 2 mph ()    
Max Wind Speed 8 mph    
Max Gust Speed 15 mph    
Visibility 4.4 miles    
Events Fog    
Averages and records for this station are not official NWS values.
T = Trace of Precipitation, MM = Missing Value Source: Averaged Metar Reports

Daily Weather History Graph

Daily Weather History Graph

Search for Another Location

Airport:

Trip Planner

Search our weather history database for the weather conditions in past years. The results will help you decide how hot, cold, wet, or windy it might be!

Date:

Astronomy

Oct. 05, 2013 Rise Set
Actual Time 8:12 AM CEST 7:45 PM CEST
Civil Twilight 7:44 AM CEST 8:13 PM CEST
Nautical Twilight 7:11 AM CEST 8:46 PM CEST
Astronomical Twilight 6:38 AM CEST 9:19 PM CEST
Moon 8:37 AM CEST (10/5) 7:52 PM CEST (10/5)
Length of Visible Light 12h 28m
Length of Day
11h 32m
New Moon, 0% of the Moon is Illuminated
Oct 5
New Moon
Oct 12
First Quarter
Oct 19
Full
Oct 27
Last Quarter
Nov 3
New

Hourly Weather History & Observations

Time (CEST) Temp. Dew Point Humidity Pressure Visibility Wind Dir Wind Speed Gust Speed Precip Events Conditions
12:00 AM 51.8 °F 51.8 °F 100% 30.18 in 6.2 mi SSW 2.3 mph - N/A   Partly Cloudy
12:30 AM 51.8 °F 51.8 °F 100% 30.18 in 6.2 mi Variable 2.3 mph - N/A   Mostly Cloudy
1:00 AM 51.8 °F 51.8 °F 100% 30.18 in 6.2 mi Calm Calm - N/A   Mostly Cloudy
1:30 AM 51.8 °F 50.0 °F 94% 30.18 in 6.2 mi Calm Calm - N/A   Mostly Cloudy
2:00 AM 50.0 °F 50.0 °F 100% 30.18 in 6.2 mi ENE 2.3 mph - N/A   Mostly Cloudy
2:30 AM 48.2 °F 48.2 °F 100% 30.21 in 6.2 mi NNE 1.2 mph - N/A   Scattered Clouds
3:00 AM 50.0 °F 50.0 °F 100% 30.21 in 6.2 mi NNE 2.3 mph - N/A   Partly Cloudy
3:30 AM 50.0 °F 50.0 °F 100% 30.21 in 6.2 mi North 2.3 mph - N/A   Partly Cloudy
4:00 AM 48.2 °F 46.4 °F 93% 30.21 in 5.6 mi Calm Calm - N/A   Partly Cloudy
4:30 AM 48.2 °F 48.2 °F 100% 30.21 in 1.2 mi Calm Calm - N/A Fog Partly Cloudy
4:32 AM 48.2 °F 48.2 °F 100% 30.21 in 0.5 mi NW 1.2 mph - N/A Fog Fog
5:00 AM 46.4 °F 46.4 °F 100% 30.21 in 0.9 mi Calm Calm - N/A Fog Patches of Fog
5:30 AM 48.2 °F 48.2 °F 100% 30.21 in 1.9 mi Calm Calm - N/A Fog Patches of Fog
6:00 AM 48.2 °F 48.2 °F 100% 30.21 in 1.9 mi Calm Calm - N/A Fog Patches of Fog
6:30 AM 50.0 °F 50.0 °F 100% 30.21 in 0.4 mi Calm Calm - N/A Fog Fog
7:00 AM 50.0 °F 50.0 °F 100% 30.24 in 0.2 mi Calm Calm - N/A Fog Fog
7:30 AM 50.0 °F 50.0 °F 100% 30.24 in 0.1 mi Variable 1.2 mph - N/A Fog Fog
8:00 AM 50.0 °F 50.0 °F 100% 30.24 in 0.1 mi Variable 1.2 mph - N/A Fog Fog
8:30 AM 50.0 °F 50.0 °F 100% 30.24 in 0.1 mi Variable 1.2 mph - N/A Fog Fog
9:00 AM 50.0 °F 50.0 °F 100% 30.27 in 0.2 mi Variable 1.2 mph - N/A Fog Fog
9:30 AM 50.0 °F 50.0 °F 100% 30.27 in 0.2 mi Calm Calm - N/A Fog Fog
10:00 AM 50.0 °F 50.0 °F 100% 30.27 in 0.3 mi Variable 1.2 mph - N/A Fog Fog
10:30 AM 50.0 °F 50.0 °F 100% 30.30 in 0.5 mi Calm Calm - N/A Fog Fog
11:00 AM 51.8 °F 51.8 °F 100% 30.30 in 1.1 mi Calm Calm - N/A Fog Patches of Fog
11:30 AM 53.6 °F 53.6 °F 100% 30.30 in - Calm Calm - N/A Fog Patches of Fog
12:00 PM 53.6 °F 53.6 °F 100% 30.30 in 3.7 mi Variable 2.3 mph - N/A   Mostly Cloudy
12:30 PM 57.2 °F 57.2 °F 100% 30.30 in 5.6 mi SW 3.5 mph - N/A   Mostly Cloudy
1:00 PM 62.6 °F 57.2 °F 82% 30.30 in 6.2 mi NNW 1.2 mph - N/A   Mostly Cloudy
1:30 PM 64.4 °F 55.4 °F 73% 30.30 in 6.2 mi NNW 2.3 mph 15.0 mph N/A   Mostly Cloudy
2:00 PM 66.2 °F 55.4 °F 68% 30.30 in 6.2 mi NE 1.2 mph - N/A   Mostly Cloudy
2:30 PM 64.4 °F 55.4 °F 73% 30.27 in 6.2 mi NNE 3.5 mph - N/A   Mostly Cloudy
3:00 PM 66.2 °F 53.6 °F 64% 30.27 in 6.2 mi NNE 5.8 mph - N/A   Mostly Cloudy
3:30 PM 66.2 °F 51.8 °F 60% 30.27 in 6.2 mi ENE 4.6 mph - N/A   Mostly Cloudy
4:00 PM 62.6 °F 53.6 °F 72% 30.27 in 6.2 mi NNW 8.1 mph - N/A   Mostly Cloudy
4:30 PM 60.8 °F 55.4 °F 82% 30.30 in 6.2 mi NNE 6.9 mph - N/A   Mostly Cloudy
5:00 PM 62.6 °F 55.4 °F 77% 30.30 in 6.2 mi ENE 8.1 mph - N/A   Mostly Cloudy
5:30 PM 62.6 °F 53.6 °F 72% 30.27 in 6.2 mi NNE 6.9 mph - N/A   Mostly Cloudy
6:00 PM 62.6 °F 53.6 °F 72% 30.30 in 6.2 mi NNE 8.1 mph - N/A   Mostly Cloudy
6:30 PM 62.6 °F 53.6 °F 72% 30.30 in 6.2 mi NNE 5.8 mph - N/A   Mostly Cloudy
7:00 PM 60.8 °F 55.4 °F 82% 30.30 in 6.2 mi NE 8.1 mph - N/A   Mostly Cloudy
7:30 PM 59.0 °F 55.4 °F 88% 30.30 in 6.2 mi NNE 8.1 mph - N/A   Mostly Cloudy
8:00 PM 59.0 °F 55.4 °F 88% 30.30 in 6.2 mi NNE 6.9 mph - N/A   Mostly Cloudy
8:30 PM 59.0 °F 53.6 °F 82% 30.30 in 6.2 mi Variable 2.3 mph - N/A   Mostly Cloudy
9:00 PM 57.2 °F 51.8 °F 82% 30.33 in 6.2 mi Variable 2.3 mph - N/A   Mostly Cloudy
9:30 PM 57.2 °F 51.8 °F 82% 30.33 in 6.2 mi NNE 5.8 mph - N/A   Scattered Clouds
10:00 PM 57.2 °F 53.6 °F 88% 30.33 in 6.2 mi Calm Calm - N/A   Mostly Cloudy
10:30 PM 57.2 °F 53.6 °F 88% 30.33 in 6.2 mi Calm Calm - N/A   Mostly Cloudy
11:00 PM 55.4 °F 53.6 °F 94% 30.33 in 6.2 mi Calm Calm - N/A   Mostly Cloudy
11:30 PM 53.6 °F 51.8 °F 94% 30.33 in 6.2 mi Calm Calm - N/A   Mostly Cloudy